Location: ????????
(60.4333°N, 46.4710°E)
Time: 03:34:30
(UTC+00:00)

YAOGAN 1 - Pass Details

Date: 25 November 2020
Orbit: 618 x 620 km, 97.9° (Epoch: 19 January)

Event Time Altitude Azimuth Distance (km) Brightness Sun altitude
Exits shadow 13:47:31 - 119° (ESE) 2,524 5.3 -11.7°
Reaches altitude 10° 13:48:58 10° 111° (ESE) 1,995 4.7 -11.9°
Maximum altitude 13:52:36 27° 54° (NE) 1,222 3.5 -12.3°
Drops below altitude 10° 13:56:14 10° 358° (N) 2,006 5.0 -12.7°
Sets 13:58:41 0° 346° (NNW) 2,916 6.0 -13.0°
